Wind_Speed
24 26 24 23 25 27 30 35 41 46 52 60 69 76 75 78 72 72 71 69 66 65 63 63 65 64 59 57 61 60 57 54 51 57 56 52 51 49 55 53 48 49 48 47 44 44 44 43 40
23 22 25 26 27 27 26 32 34 41 45 49 55 62 70 74 82 80 78 75 72 70 69 66 67 70 67 61 62 62 65 61 60 61 62 58 60 59 61 55 52 52 51 49 50 51 49 44 47
27 23 21 25 31 28 26 27 34 39 43 45 50 52 57 71 85 85 80 84 83 83 79 79 75 71 75 68 66 67 64 67 65 66 64 63 62 64 65 61 60 59 56 55 54 53 51 47 44
31 29 22 24 22 26 20 24 30 33 38 40 45 48 55 62 64 70 82 86 89 89 88 83 76 74 74 78 75 71 70 69 69 72 69 70 69 68 68 68 67 65 62 60 56 56 53 51 46
33 27 25 23 19 17 20 28 30 34 35 38 35 43 54 63 65 72 73 78 86 95 96 89 90 84 78 81 81 76 69 73 75 76 77 76 74 75 72 71 71 71 69 64 61 59 60 55 47
34 31 24 28 25 23 25 27 35 35 37 34 35 39 48 60 68 75 76 75 79 82 85 93 98 93 87 82 88 86 86 83 83 84 84 81 82 81 83 81 78 75 73 68 66 65 61 55 52
33 32 26 26 32 30 31 32 34 33 37 33 41 42 49 56 64 67 77 77 69 61 63 79 92 96 97 96 90 96 94 91 94 92 90 86 82 81 84 84 82 78 77 75 72 69 64 59 57
32 34 31 29 33 35 34 37 33 35 36 40 39 48 52 54 57 68 71 80 84 77 58 62 68 80 91 100 101 103 98 94 94 95 94 92 89 89 89 86 85 82 76 75 73 71 66 63 59
37 34 37 36 35 38 39 39 39 40 44 45 46 49 56 53 60 69 74 73 73 78 81 71 66 66 73 84 93 96 96 94 97 100 98 96 97 92 90 87 87 87 82 76 74 73 71 67 65
36 35 36 37 39 41 43 42 42 44 47 48 49 58 61 65 60 58 55 54 59 57 64 68 66 66 68 74 82 88 93 91 93 103 102 100 100 95 92 89 88 89 85 83 79 80 75 73 72
37 38 37 41 42 41 44 45 45 48 50 53 49 57 56 63 57 57 58 57 54 57 62 68 68 62 66 73 77 84 89 91 92 97 103 104 103 101 98 93 90 92 88 85 83 83 81 78 77
38 38 39 43 41 44 45 46 46 49 54 57 53 59 63 66 60 53 53 55 56 52 53 55 61 68 71 71 76 79 84 87 89 94 99 103 106 105 99 97 94 92 91 90 85 85 84 81 81
41 39 42 42 41 45 43 45 48 51 56 57 57 65 72 68 65 52 51 52 49 43 43 44 50 59 65 69 73 76 80 83 85 88 90 95 98 103 100 98 93 98 93 91 87 86 87 84 82
38 39 42 44 41 42 43 46 49 51 55 59 62 68 73 72 63 58 53 50 46 46 39 35 37 47 53 61 68 75 79 80 81 82 85 88 91 96 101 97 95 92 93 89 89 85 81 80 78
40 41 42 43 39 40 42 45 47 50 54 58 64 70 74 70 64 58 56 51 47 45 41 32 29 33 36 46 53 64 71 78 82 83 85 88 87 92 96 97 96 91 89 90 88 85 85 79 78
40 43 41 38 38 39 41 44 46 50 55 59 63 68 71 68 68 60 59 54 49 46 43 38 33 29 29 35 43 51 63 77 76 75 86 92 87 97 96 93 93 92 90 87 85 85 85 83 80
39 41 40 38 39 41 40 44 47 51 55 58 62 67 67 71 74 68 64 58 52 49 44 39 38 35 31 29 34 43 54 65 76 78 87 98 96 95 86 95 95 94 89 85 80 77 80 78 73
38 38 37 36 38 41 41 43 45 50 55 58 62 65 66 70 77 72 62 57 48 48 44 41 34 31 29 30 31 37 45 58 64 86 91 105 102 88 90 92 91 90 89 87 81 76 73 69 71
37 39 38 38 36 40 41 44 45 48 53 56 60 62 64 70 77 72 67 59 51 48 43 38 31 24 21 24 28 32 37 46 61 77 96 100 99 91 95 91 90 88 82 80 75 73 71 69 68
37 42 39 38 35 38 41 43 45 47 52 55 58 60 64 68 72 73 68 57 52 45 41 33 25 18 13 18 25 30 35 40 51 69 89 99 96 92 92 88 88 83 81 78 75 71 72 67 63
37 40 40 39 35 37 39 41 42 45 51 53 57 58 62 68 71 74 63 58 50 44 39 27 22 16 13 11 18 26 33 35 43 56 77 89 91 90 88 86 85 76 71 75 71 68 64 57 52
39 39 40 38 36 35 37 39 41 44 48 52 54 53 59 65 69 73 67 62 53 46 40 28 23 19 12 10 14 19 24 28 35 41 65 82 92 91 91 87 74 71 66 71 68 66 60 51 53
40 39 37 35 35 32 36 37 38 41 44 48 50 52 57 63 66 73 68 64 56 48 41 29 20 15 11 8 10 15 22 26 28 38 56 76 90 91 84 85 86 84 81 79 73 70 65 62 50
42 39 35 33 32 33 34 36 36 39 42 44 47 50 55 59 65 72 71 68 60 52 43 29 18 13 11 6 9 16 22 26 28 34 49 66 75 90 82 80 80 76 74 71 71 62 59 54 47
43 39 35 32 30 32 33 34 36 38 38 42 45 45 51 56 62 66 70 65 62 55 47 27 20 17 12 1 6 12 17 23 26 31 36 44 59 92 89 84 80 76 76 69 64 64 59 56 52
42 38 37 31 29 30 31 33 36 36 35 38 41 43 49 52 60 63 71 64 63 58 52 32 23 27 17 6 6 8 12 15 20 26 25 44 66 83 84 76 75 71 52 47 55 59 54 52 54
42 37 34 28 29 30 31 31 32 33 32 35 38 40 45 48 53 57 63 72 63 60 54 40 25 32 22 12 8 11 11 15 19 21 27 38 58 81 77 68 67 56 48 52 54 54 52 53 49
42 36 34 30 28 29 28 30 31 31 30 32 35 38 40 43 51 53 59 67 68 54 53 49 37 30 26 20 13 10 10 11 14 17 21 29 44 72 67 61 55 45 48 49 51 51 54 48 48
41 38 35 30 27 26 27 27 29 30 28 28 31 34 37 38 44 47 52 61 68 62 55 50 45 35 32 26 20 12 9 11 7 9 16 23 32 48 65 57 54 50 50 50 50 52 53 51 52
40 35 37 33 29 25 26 26 25 28 28 26 29 31 33 34 37 42 46 53 60 66 59 52 47 42 33 28 23 13 6 10 16 13 22 30 35 40 53 55 57 51 54 53 50 48 48 49 51
Wind_Direction
331 320 305 296 284 280 280 275 269 266 266 263 256 252 253 253 254 252 253 248 244 239 246 245 246 242 243 246 248 244 251 253 251 242 244 243 230 245 249 256 260 264 266 269 272 276 282 281 282
342 320 308 301 294 295 292 284 277 274 271 272 270 267 264 260 254 254 254 250 243 243 246 246 247 244 243 244 248 249 249 250 249 247 245 245 248 253 254 256 261 264 267 269 271 274 279 279 286
354 336 313 298 301 297 291 269 269 273 277 277 278 279 275 266 260 257 255 250 248 248 251 249 253 244 241 243 247 249 250 249 247 243 247 242 250 253 255 256 259 263 266 266 269 273 275 277 280
360 344 327 316 302 299 286 252 258 263 265 273 276 277 277 275 269 264 261 254 249 250 249 252 250 244 246 241 244 248 248 249 250 247 247 247 249 251 249 253 256 261 265 265 265 271 273 276 276
360 347 336 325 305 302 260 253 262 264 273 272 273 282 278 278 278 272 263 257 254 251 252 252 252 246 241 242 242 246 248 248 250 248 249 249 250 250 249 251 256 259 261 262 265 267 271 272 271
359 350 338 332 327 307 294 282 269 277 288 285 278 285 291 282 276 273 271 268 259 251 252 252 252 248 247 237 240 246 245 245 243 244 245 246 250 251 253 253 255 258 260 262 265 267 268 267 269
349 350 342 336 333 326 310 307 309 298 283 295 278 299 295 288 278 275 275 277 277 264 258 253 251 251 246 243 239 241 244 246 249 244 248 244 244 246 251 252 254 258 261 261 261 264 266 267 266
332 345 343 336 332 329 320 316 313 312 315 313 305 306 309 304 290 281 277 280 283 279 271 262 253 247 248 244 241 240 242 242 247 246 243 245 248 247 245 247 250 253 258 259 260 264 265 264 264
328 324 338 335 332 329 326 321 321 320 320 322 320 319 321 317 300 287 282 280 280 283 283 279 269 256 246 243 240 238 241 239 240 244 247 245 247 248 247 247 249 252 254 256 256 260 263 263 263
327 322 325 331 329 328 326 325 323 322 322 324 329 332 340 335 321 311 302 297 295 282 273 271 269 260 252 243 239 236 236 237 240 239 240 244 246 247 248 247 249 251 255 255 256 259 260 263 263
330 325 321 327 329 329 328 328 325 324 324 326 329 330 339 329 325 312 308 303 292 274 264 264 264 259 250 246 240 238 236 236 237 239 239 244 246 247 247 247 249 249 253 253 256 258 260 260 261
320 323 318 323 328 325 325 329 324 325 325 327 330 336 341 336 328 321 311 301 295 289 276 261 258 254 252 244 239 237 233 232 234 238 240 242 244 246 247 249 250 248 251 255 253 257 260 261 261
314 319 318 322 328 323 324 329 324 326 325 329 335 338 341 339 335 327 317 311 305 299 287 268 255 252 249 246 243 238 237 230 231 238 239 239 241 244 247 250 252 250 251 252 255 257 260 261 263
312 316 317 320 326 321 325 330 325 327 328 330 336 341 342 341 338 331 328 320 312 311 300 280 259 248 246 246 239 238 237 235 230 234 238 240 241 242 244 248 248 248 250 250 255 256 256 261 263
307 311 313 318 322 319 327 330 327 327 330 330 339 344 344 346 342 334 330 330 323 321 313 296 274 255 249 245 240 235 233 237 235 230 235 238 238 241 243 244 245 249 249 252 254 254 255 257 260
304 311 314 320 321 318 328 331 329 329 331 335 343 345 345 348 346 339 332 336 332 333 323 311 297 275 259 248 236 227 225 230 237 232 235 237 237 236 239 244 245 247 249 250 252 253 255 258 258
301 307 313 316 319 318 322 326 328 326 333 337 344 346 347 347 349 346 338 338 338 337 331 320 307 291 271 247 233 224 219 220 228 230 230 232 236 237 242 240 243 246 248 251 254 255 255 255 257
299 306 315 316 318 315 320 327 328 327 333 340 345 347 349 348 348 349 342 342 340 341 340 331 315 292 272 253 232 226 217 215 219 227 227 225 230 237 238 237 240 245 247 251 252 252 253 256 261
302 301 310 312 317 318 318 327 328 328 335 340 347 348 348 349 349 351 347 346 345 346 348 335 322 296 274 254 235 224 214 212 215 219 224 226 229 234 235 236 240 240 243 248 252 253 259 260 266
298 300 306 310 316 319 319 327 328 329 336 340 348 348 348 352 352 354 349 351 350 350 353 340 325 315 290 256 233 222 213 208 212 218 220 222 227 230 232 235 235 235 242 248 252 255 261 263 267
296 299 303 305 313 317 321 328 331 328 337 341 349 350 350 354 353 357 353 357 0 355 358 346 329 325 311 257 241 221 208 211 209 215 217 219 223 225 227 228 231 229 234 246 249 254 256 260 268
296 295 299 305 309 317 320 327 330 328 337 342 351 351 353 355 0 0 357 357 0 2 2 351 333 323 304 273 231 215 205 206 208 211 212 214 218 217 223 226 223 226 231 241 244 251 253 260 267
298 294 297 301 306 317 319 323 327 330 339 343 351 352 356 358 358 6 1 1 1 5 4 357 344 336 311 273 228 195 195 194 199 203 204 212 211 216 222 225 225 227 235 240 243 249 253 261 255
299 293 295 298 305 312 316 321 329 331 338 344 354 355 356 357 359 8 8 3 3 7 11 5 359 354 344 273 212 193 183 185 196 199 204 209 212 212 210 217 224 230 236 239 240 245 250 251 251
298 292 293 296 302 307 312 317 325 331 340 347 355 359 355 1 2 10 11 5 6 9 14 13 14 10 4 348 189 174 179 180 188 196 206 209 213 205 216 219 227 229 233 236 238 241 246 249 249
294 291 288 293 298 302 307 314 322 330 342 346 353 2 1 1 5 14 17 15 11 11 16 20 29 25 25 78 116 155 164 170 188 198 202 203 207 210 214 213 220 228 228 229 235 242 243 251 254
290 288 287 288 291 299 303 311 318 326 338 343 351 2 3 4 6 13 20 21 19 13 18 23 25 25 31 34 86 121 141 156 175 196 202 205 207 206 210 212 223 228 230 227 234 243 242 245 254
285 287 285 288 290 295 298 306 313 321 333 340 348 357 7 9 6 13 21 24 23 22 20 23 25 24 37 40 61 108 137 173 193 196 202 204 204 205 205 216 221 219 227 232 238 240 247 253 260
284 287 285 288 288 288 293 297 308 316 325 335 345 350 8 16 10 16 20 24 27 30 27 25 27 36 43 39 41 66 113 126 148 198 198 201 196 200 201 216 220 226 229 235 239 246 250 258 265
287 283 285 290 285 278 289 292 301 309 317 329 337 343 4 14 19 14 21 27 26 35 38 27 29 32 40 39 35 45 70 121 132 137 184 177 186 190 200 219 223 228 232 237 240 247 255 264 268
Height
10806 10804 10802 10800 10798 10796 10794 10792 10791 10789 10783 10778 10780 10782 10784 10788 10788 10792 10794 10798 10798 10801 10802 10805 10809 10813 10814 10813 10812 10814 10816 10819 10820 10822 10823 10823 10824 10826 10825 10826 10829 10833 10834 10837 10838 10840 10841 10841 10841
10804 10800 10798 10794 10792 10789 10788 10784 10781 10775 10775 10776 10774 10773 10771 10772 10772 10777 10780 10783 10787 10790 10792 10794 10797 10802 10806 10804 10804 10806 10807 10808 10810 10812 10813 10814 10815 10817 10817 10818 10821 10824 10828 10831 10832 10834 10835 10836 10835
10803 10799 10794 10790 10786 10784 10781 10779 10774 10770 10769 10768 10765 10762 10757 10755 10757 10759 10761 10763 10769 10772 10776 10779 10785 10789 10795 10796 10794 10793 10796 10794 10796 10800 10802 10803 10804 10806 10807 10811 10812 10817 10820 10823 10825 10826 10828 10829 10829
10798 10796 10792 10787 10783 10779 10775 10771 10770 10769 10761 10759 10756 10752 10746 10741 10741 10738 10739 10743 10749 10752 10758 10762 10768 10775 10781 10784 10780 10781 10783 10784 10785 10786 10790 10792 10793 10796 10797 10799 10801 10807 10811 10814 10816 10817 10820 10822 10822
10794 10791 10788 10784 10780 10775 10773 10767 10766 10761 10757 10755 10751 10744 10735 10730 10726 10720 10720 10720 10727 10733 10737 10742 10745 10753 10762 10767 10766 10766 10770 10769 10769 10769 10773 10778 10781 10783 10785 10788 10792 10796 10799 10804 10807 10810 10811 10814 10814
10792 10787 10783 10778 10775 10772 10767 10764 10760 10756 10750 10747 10743 10737 10724 10716 10710 10705 10703 10702 10706 10715 10717 10721 10726 10731 10739 10749 10748 10751 10750 10749 10748 10750 10758 10763 10768 10772 10774 10777 10781 10785 10790 10794 10796 10798 10801 10805 10806
10788 10783 10779 10774 10769 10767 10761 10757 10754 10750 10742 10739 10733 10727 10717 10704 10695 10690 10688 10686 10688 10696 10699 10702 10704 10707 10716 10724 10729 10729 10734 10731 10732 10732 10741 10747 10752 10757 10762 10766 10768 10773 10779 10784 10786 10787 10792 10795 10797
10782 10778 10773 10770 10765 10761 10755 10748 10747 10738 10732 10727 10720 10712 10700 10687 10680 10675 10674 10671 10668 10674 10678 10682 10683 10683 10687 10697 10703 10708 10714 10715 10716 10714 10720 10728 10738 10742 10745 10753 10756 10761 10768 10772 10775 10777 10781 10784 10787
10778 10773 10769 10764 10760 10754 10750 10744 10737 10730 10724 10717 10709 10697 10683 10670 10664 10663 10662 10659 10654 10649 10643 10646 10651 10656 10660 10667 10674 10682 10690 10695 10698 10694 10704 10707 10716 10724 10731 10740 10744 10748 10755 10760 10763 10766 10770 10773 10777
10774 10769 10764 10759 10755 10749 10742 10737 10731 10723 10716 10710 10701 10685 10670 10657 10647 10640 10638 10637 10632 10626 10619 10618 10621 10628 10635 10641 10648 10654 10662 10673 10678 10678 10686 10690 10697 10709 10718 10726 10732 10735 10742 10748 10753 10753 10760 10762 10763
10769 10764 10759 10754 10749 10743 10735 10728 10722 10715 10708 10700 10691 10680 10664 10650 10637 10628 10622 10617 10609 10604 10599 10595 10596 10600 10610 10615 10622 10627 10637 10649 10657 10664 10670 10674 10681 10693 10703 10709 10718 10723 10727 10734 10741 10745 10747 10750 10751
10764 10760 10754 10747 10743 10737 10730 10723 10715 10708 10698 10690 10679 10668 10654 10638 10622 10617 10607 10596 10588 10580 10576 10572 10571 10574 10580 10589 10597 10604 10611 10625 10638 10644 10651 10661 10669 10675 10686 10693 10704 10711 10717 10722 10732 10734 10733 10738 10738
10759 10754 10748 10741 10736 10730 10724 10717 10708 10700 10689 10680 10670 10658 10641 10625 10610 10601 10587 10575 10566 10560 10553 10551 10548 10550 10553 10562 10570 10580 10588 10600 10615 10625 10635 10645 10655 10663 10668 10677 10690 10698 10706 10710 10719 10722 10725 10725 10728
10753 10748 10742 10737 10731 10724 10718 10712 10701 10693 10682 10671 10661 10646 10629 10613 10599 10586 10572 10561 10550 10539 10533 10528 10527 10530 10534 10539 10546 10557 10569 10580 10592 10608 10618 10627 10640 10649 10655 10665 10673 10682 10691 10698 10707 10715 10716 10715 10715
10747 10742 10737 10732 10726 10719 10711 10705 10698 10687 10677 10667 10653 10637 10620 10604 10588 10575 10560 10548 10535 10525 10516 10512 10510 10511 10513 10520 10525 10536 10549 10561 10571 10588 10605 10614 10628 10636 10647 10648 10657 10671 10677 10691 10698 10703 10707 10707 10707
10740 10736 10732 10727 10721 10714 10706 10698 10691 10681 10672 10660 10647 10633 10617 10599 10583 10566 10550 10538 10525 10514 10504 10497 10494 10493 10494 10499 10507 10519 10530 10544 10559 10577 10592 10602 10613 10621 10633 10640 10644 10657 10667 10677 10686 10692 10695 10698 10699
10733 10730 10726 10721 10716 10710 10704 10696 10685 10676 10666 10656 10643 10629 10610 10592 10578 10561 10541 10527 10514 10502 10492 10485 10480 10478 10478 10482 10491 10500 10510 10525 10541 10559 10578 10589 10597 10609 10624 10629 10635 10643 10655 10664 10673 10679 10685 10688 10690
10726 10724 10720 10715 10711 10705 10699 10691 10682 10669 10660 10650 10637 10623 10606 10589 10571 10554 10538 10524 10508 10493 10480 10473 10468 10465 10466 10469 10476 10485 10496 10509 10522 10542 10562 10572 10581 10600 10609 10618 10623 10634 10643 10651 10660 10666 10673 10678 10682
10720 10717 10714 10710 10706 10700 10693 10684 10675 10667 10657 10646 10633 10619 10606 10588 10568 10549 10529 10513 10500 10484 10474 10466 10461 10457 10458 10460 10465 10474 10484 10494 10507 10525 10545 10558 10574 10588 10599 10608 10616 10623 10633 10641 10649 10655 10661 10666 10670
10714 10710 10707 10703 10700 10694 10687 10680 10670 10660 10652 10642 10630 10615 10600 10586 10567 10548 10527 10511 10497 10483 10470 10463 10459 10454 10452 10455 10458 10465 10475 10486 10500 10513 10532 10550 10566 10580 10590 10602 10608 10615 10623 10635 10640 10646 10652 10656 10660
10709 10705 10701 10697 10694 10689 10682 10675 10665 10656 10649 10639 10627 10612 10598 10581 10563 10545 10527 10511 10495 10481 10470 10463 10459 10454 10452 10451 10455 10461 10468 10478 10490 10505 10522 10543 10556 10569 10582 10592 10600 10607 10615 10626 10632 10639 10644 10649 10653
10701 10698 10695 10691 10688 10684 10678 10671 10663 10653 10644 10635 10625 10613 10599 10583 10563 10543 10526 10508 10494 10480 10469 10462 10458 10455 10452 10452 10453 10458 10466 10474 10485 10499 10516 10536 10546 10557 10570 10583 10591 10599 10610 10617 10625 10631 10636 10642 10645
10694 10691 10689 10685 10682 10679 10674 10669 10662 10653 10645 10636 10627 10613 10598 10582 10566 10544 10529 10509 10495 10482 10470 10462 10459 10455 10453 10451 10452 10455 10462 10470 10480 10492 10505 10522 10541 10549 10560 10573 10585 10593 10603 10610 10619 10625 10630 10636 10639
10686 10684 10682 10680 10676 10673 10669 10664 10659 10652 10644 10636 10626 10611 10598 10585 10568 10547 10527 10512 10498 10483 10471 10464 10461 10458 10455 10454 10454 10455 10460 10467 10476 10486 10497 10513 10531 10547 10554 10567 10577 10589 10597 10608 10613 10619 10623 10628 10630
10679 10677 10675 10673 10670 10666 10663 10658 10653 10648 10641 10633 10624 10612 10600 10588 10573 10554 10534 10517 10502 10488 10476 10468 10464 10461 10458 10457 10457 10459 10463 10470 10476 10485 10498 10513 10528 10540 10552 10564 10575 10584 10593 10602 10607 10611 10615 10619 10620
10671 10670 10668 10667 10663 10660 10658 10654 10648 10643 10637 10631 10624 10613 10602 10591 10575 10561 10542 10522 10507 10494 10482 10474 10471 10466 10463 10462 10461 10463 10467 10474 10481 10489 10498 10510 10524 10537 10549 10561 10572 10582 10590 10597 10600 10602 10606 10609 10610
10663 10662 10660 10660 10657 10654 10651 10649 10644 10639 10635 10629 10623 10614 10604 10593 10582 10566 10549 10530 10514 10501 10490 10481 10476 10472 10469 10468 10468 10469 10472 10478 10484 10493 10500 10508 10522 10537 10551 10560 10570 10580 10586 10590 10593 10595 10598 10601 10603
10655 10654 10653 10653 10651 10649 10646 10643 10639 10635 10633 10627 10621 10615 10607 10596 10585 10571 10556 10540 10523 10510 10496 10487 10482 10477 10474 10475 10475 10476 10480 10485 10490 10495 10502 10510 10520 10536 10551 10560 10569 10576 10580 10584 10587 10589 10591 10592 10594
10647 10646 10645 10646 10645 10642 10639 10638 10635 10631 10629 10625 10620 10615 10608 10599 10589 10577 10564 10549 10534 10519 10506 10495 10488 10484 10482 10480 10482 10483 10485 10489 10494 10500 10507 10515 10525 10535 10554 10559 10565 10571 10575 10580 10583 10585 10586 10585 10586
10638 10638 10638 10639 10638 10636 10633 10631 10629 10627 10625 10623 10618 10614 10609 10601 10592 10583 10570 10559 10546 10533 10517 10508 10497 10491 10489 10489 10489 10492 10493 10496 10500 10506 10513 10521 10531 10541 10553 10558 10563 10567 10571 10574 10577 10578 10579 10579 10578